NOAA 16 DEB

Satellite information

Favourite Embed

Satellite Type and Status

DEBRISIN ORBIT

Key statistics

Satellite NOAA 16 DEB at a glance.

Uptime

9215

Days in orbit

Revolutions

≈ 14.6

Per day

Orbit

SSO

Sun Synchronous Orbit

Inclination

98.9

Latest

Satellite identification and parameters

Extended collection of information and parameters for NOAA 16 DEB.

Object identification

Identified? True

Debris? True

Object name: NOAA 16 DEB

International designator: 2000-055BQ

Object number (NORAD): 41133

Object ID (CCSDS): 41133

Country: UNITED STATES OF AMERICA (US)

Current information (Y/N): Y

RCS size: SMALL

Orbital parameters

Period: 98.71 minutes

Inclination: 98.9282 deg

SMA: 7075.135 km

Apoapsis: 705.448 km

Periapsis: 688.552 km

RAAN: 143.9293 deg

Eccentricy: 0.00119402

Argument of periapsis: 259.0831 deg

Mean anomaly: 100.9023 deg

Mean motion: 14.58816467 rev/day

Mean motion (dot): 0.00038685 rev/day2

B* drag term: 0.0082287432 1/REarth

Two-line elements (TLE)

Creation date: Dec. 13, 2025, 4:32 a.m.

Reference frame: TEME

Reference center: EARTH

Epoch: Dec. 12, 2025, 10:04 a.m. UTC

TLE line 0: 0 NOAA 16 DEB

TLE line 1: 1 41133U 00055BQ 25346.41950369 .00038685 00000-0 82287-2 0 9998

TLE line 2: 2 41133 98.9282 143.9293 0011940 259.0831 100.9023 14.58816467519152

Live tracking on map

Real-time ground track for satellite NOAA 16 DEB.

In-orbit conjunctions

A list of the most updated potential collisions computed for object NOAA 16 DEB.

Target Orbit TCA Probability of collision Miss distance Type
CZ-6A DEB LEO 2025-02-01 01:21:20 0.0009386114 241.0 (m) DEBRIS
CZ-6A DEB LEO 2025-01-15 17:50:37 0.0005272876 113.0 (m) DEBRIS

Associated space launch

The NOAA K, L and M POES satellites begin the fifth generation of improved environmental monitoring in support of NOAA missions. The instrument payload has significant improvements and additions/deletions. The instrument changes have effected the spacecraft subsystems and data formats.

NOAA 16 DEB was lifted into orbit during the mission ‘Titan II SLV | NOAA 16’, on board a Titan II SLV space rocket.

The launch took place on Sept. 21, 2000, 10:22 a.m. from Space Launch Complex 4W.

For more information about the launch, click the button.

Launch to space Titan II SLV | NOAA 16
Titan II SLV | NOAA 16

Agency: N/A

Status: Launch Successful

Launch date: Sept. 21, 2000, 10:22 a.m. UTC

Rocket: Titan II SLV

Launch pad: Space Launch Complex 4W

Location: Vandenberg SFB, CA, USA

...

Latest news about this satellite

There are no fresh news available about this satellite. Check back as we update our databases every day.


Newsletter sign-up

Weekly statistics, charts and insights to help you stay on top of the space industry.